Вернуться в каталог

STARLINK-36410

АктивенСвязьVLEO
NORAD 67337·PAYLOAD·🇺🇸 United States

Запущен Jan 9, 2026 с Cape Canaveral Space Force Station

Loading…

Ближайшие Пролёты (ближайшие 24 часа)

TLE

СвежийSource: CelesTrak SupGP

Эпоха: Sep 15, 2026, 03:09 UTC

1 67337C 26003D   26258.13173611 -.00022240  00000+0 -80539-3 0  2580
2 67337  43.0018 237.5938 0001625 269.7428  35.0630 15.27595199    14

Отслеживайте STARLINK-36410 в реальном времени с AllMySat

Download on the App Store